Regional Weather Roundup
Issued by NWS

Home | Current Version | Previous Version | Text Only | Print | Product List | Glossary Off
Versions: 1 2 3 4 5 6 7 8 9 10 11 12 13 14 15 16 17 18 19 20 21 22 23 24 25 26 27 28 29 30 31 32 33 34 35 36 37 38 39 40 41 42 43 44 45 46 47 48 49 50

280
ASUS43 KOAX 200110
RWRNE

WEATHER ROUNDUP FOR NEBRASKA
NATIONAL WEATHER SERVICE OMAHA NE
800 PM CDT WED JUL 19 2017

NOTES: SATELLITE DATA IS BEING USED TO AUGMENT CLOUD COVER ABOVE
       12000 FEET.
       "FAIR" INDICATES FEW OR NO CLOUDS BELOW 12,000 FEET WITH NO
       SIGNIFICANT WEATHER AND/OR OBSTRUCTIONS TO VISIBILITY.


NEZ001>004-019>022-054>056-200200-
NEBRASKA PANHANDLE

CITY           SKY/WX    TMP DP  RH WIND       PRES   REMARKS
SCOTTSBLUFF    SUNNY     94  55  26 NE17G28   29.93S HX  92
ALLIANCE       CLOUDY    93  63  36 NE23G31   29.93S HX  94
CHADRON        SUNNY     90  52  27 NE21G29   29.94R
GORDON         FAIR      90  63  40 NE17G24   29.95S HX  90
KIMBALL        CLOUDY    89  54  30 NE7       30.03R
SIDNEY         CLOUDY    95  54  25 SE16G22   29.98S HX  93
$$

NEZ057>060-069>072-079>082-200200-
SOUTHWEST NEBRASKA

CITY           SKY/WX    TMP DP  RH WIND       PRES   REMARKS
NORTH PLATTE   SUNNY     97  61  30 S13       29.86F HX  97
IMPERIAL       SUNNY     97  54  23 S21G28    29.91F HX  95
LEXINGTON      SUNNY     90  69  50 S10       29.89S HX  95
MCCOOK         SUNNY     98  56  24 S16G24    29.90S HX  96
OGALLALA       SUNNY     96  56  26 S9        29.91R HX  94
$$

NEZ005>010-023>029-035>040-094-200200-
NORTH CENTRAL NEBRASKA

CITY           SKY/WX    TMP DP  RH WIND       PRES   REMARKS
VALENTINE      MOSUNNY   89  56  32 E16       29.89R
AINSWORTH      CLOUDY    76  69  78 SE15      29.91R
BROKEN BOW     SUNNY     96  62  32 S21G32    29.87R HX  97
O`NEILL        HVY RAIN  71  70  97 SE5G12    29.96F
ORD            CLOUDY    94  68  42 S13G26    29.86R HX  98
THEDFORD       SUNNY    102  54  20 SW12G20   29.86S HX 100
$$

NEZ041-046>049-061>064-073>077-083>087-200200-
SOUTH CENTRAL NEBRASKA

CITY           SKY/WX    TMP DP  RH WIND       PRES   REMARKS
GRAND ISLAND   CLEAR     91  70  49 S10       29.90R HX  96
AURORA         CLEAR     88  74  63 SE8       29.91R HX  96
HASTINGS       CLEAR     90  68  48 S9        29.91S HX  94
HEBRON         CLEAR     92  70  48 S8        29.90F HX  98
HOLDREGE       SUNNY     88  68  50 S7        29.90F HX  92
KEARNEY        SUNNY     90  72  55 S13       29.89F HX  97
YORK           CLEAR     90  73  58 S9        29.91R HX  98
$$

NEZ011>018-030>034-042>045-200200-
NORTHEAST NEBRASKA

CITY           SKY/WX    TMP DP  RH WIND       PRES   REMARKS
NORFOLK        CLOUDY    88  73  61 S7        29.88S HX  95
ALBION         CLOUDY    89  76  64 SE7       29.89R HX  99
BLAIR          CLEAR     90  77  65 S10       29.91R HX 103
COLUMBUS       CLOUDY    90  74  59 S14       29.88R HX  99
FREMONT        CLEAR     91  75  61 SE9       29.90R HX 101
TEKAMAH        CLOUDY    89  76  65 S8        29.88R HX 100
WAYNE          CLOUDY    85  81  87 NE10      29.91R HX 102
$$

NEZ050>053-065>068-078-088>093-200200-
SOUTHEAST NEBRASKA

CITY           SKY/WX    TMP DP  RH WIND       PRES   REMARKS
LINCOLN        CLEAR     90  74  59 S12       29.90F HX  99
OMAHA EPPLEY   MOCLDY    92  78  63 S14       29.90F HX 107
BEATRICE       CLEAR     93  73  50 S14       29.92S HX 101
FALLS CITY     CLEAR     89  75  63 S9        29.94R HX  99
NEBRASKA CITY  CLEAR     87  78  72 S9        29.93F HX 100
PLATTSMOUTH    CLEAR     88  79  74 S8        29.91F HX 102
$$

NEZ044-045-051>053-067-200200-
OMAHA AREA

CITY           SKY/WX    TMP DP  RH WIND       PRES   REMARKS
OMAHA EPPLEY   MOCLDY    92  78  63 S14       29.90F HX 107
BLAIR          CLEAR     90  77  65 S10       29.91R HX 103
FREMONT        CLEAR     91  75  61 SE9       29.90R HX 101
MILLARD        CLEAR     92  81  70 SE8       29.91R HX 113
OFFUTT AFB     CLEAR     88  79  73 SE10      29.91S HX 103
PLATTSMOUTH    CLEAR     88  79  74 S8        29.91F HX 102
WAHOO          FAIR      87  76  69 SE6       29.90R HX  98
$$




USA.gov is the U.S. government's official web portal to all federal, state and local government web resources and services.